Location: Fontaine du Berger
(45.7986°N, 2.9907°E)
Time: 00:17:33
(UTC+00:00)

Daily predictions for brighter satellites

Satellite Brightness Start Highest point End
(mag) Time Altitude Azimuth Time Altitude Azimuth Time Altitude Azimuth
COSMOS 2406 3.8 03:52:21 52° ESE 03:52:21 52° ESE 03:56:52 10° SE
Cosmos 2082 Rocket 3.2 03:52:50 39° NE 03:53:34 41° NE 03:58:50 10° SE
Cosmos 2344 4.5 03:46:50 10° S 03:53:51 42° ESE 04:00:51 10° NE
COSMOS 2455 3.2 03:57:05 62° SE 03:57:05 62° SE 04:02:04 10° SE
Cosmos 2278 Rocket 2.2 04:13:39 79° ENE 04:13:39 79° ENE 04:19:05 10° NNE
USA 215 3.1 04:10:14 10° SE 04:16:46 90° ENE 04:17:51 66° NW
CZ-2C R/B 3.8 04:15:08 10° SE 04:20:18 42° ENE 04:25:25 10° N
BREEZE M DEB (TANK) 3.5 04:21:18 69° NE 04:21:18 69° NE 04:23:57 10° ENE
Cosmos 1072 Rocket 4.4 04:18:58 18° N 04:23:45 87° E 04:29:53 10° S
Cosmos 540 Rocket 3.6 04:25:26 61° NNE 04:26:11 72° ENE 04:31:18 10° SSE
Cosmos 2221 3.6 04:32:04 35° S 04:32:04 35° S 04:34:39 10° S
Cosmos 1833 Rocket 3.3 04:34:00 41° SSW 04:34:00 41° SSW 04:37:57 10° S
Cosmos 1741 Rocket 4.1 04:30:04 20° S 04:33:40 73° ESE 04:38:53 10° NNE
SL-8 R/B 3.6 04:35:05 84° ENE 04:35:05 84° ENE 04:39:45 10° ENE
Meteor 1-31 Rocket 4.3 04:35:08 10° NNE 04:38:43 35° E 04:42:19 10° SSE
Cosmos 2151 4.4 04:37:45 10° SSE 04:41:43 39° E 04:45:44 10° NNE
Cosmos 841 Rocket 3.4 04:48:36 36° NNW 04:50:46 89° ENE 04:55:55 10° SSE
Cosmos 1763 Rocket 4.2 04:52:50 35° SW 04:52:50 35° SW 04:56:25 10° S
H-2A R/B 4.4 04:53:31 10° ESE 04:56:43 22° ENE 05:00:01 10° NNE
SJ-12 3.9 04:54:11 10° NNE 04:58:20 84° E 05:02:28 10° SSW
Envisat 3.0 04:54:10 10° NNE 04:59:17 81° ESE 05:04:21 10° SSW
SL-19 R/B 4.2 04:54:01 10° S 04:59:40 64° WSW 05:03:25 21° NNW
Cosmos 1570 Rocket 4.3 05:01:27 14° NNW 05:05:56 66° ENE 05:11:09 10° SSE
Cosmos 1076 Rocket 3.4 05:02:20 10° SSW 05:06:42 73° W 05:11:05 10° N
SAR-Lupe-3 4.5 05:03:17 10° NNE 05:06:54 87° ESE 05:10:28 10° SSW
YAOGAN 6 2.5 05:03:48 10° N 05:07:28 68° WNW 05:11:07 10° SSW
CBERS 1 LM4 rocket 4.3 05:06:23 10° NNE 05:11:11 88° ESE 05:16:06 10° SSW
COSMO-SKYMED 1 2.4 05:07:19 10° S 05:11:39 71° WSW 05:14:38 20° NNW
Aureole 1 Rocket 4.1 05:10:08 10° S 05:12:59 31° ESE 05:15:41 10° NE
Cosmos 1867 4.1 05:10:50 18° NNW 05:14:49 59° NE 05:20:12 10° SE
Cosmos 2084 Rocket 3.5 05:13:31 10° SSW 05:17:20 64° SE 05:21:11 10° NE
APEX 3.6 05:16:51 28° NNE 05:17:48 40° ENE 05:20:34 10° SE
Cosmos 1464 Rocket 4.3 05:12:09 10° NNW 05:18:01 41° W 05:23:47 10° SSW
NOSS 3-2 (A) 3.4 05:12:46 10° SSW 05:18:17 80° SE 05:24:42 10° NE
Geosat FO 4.5 05:16:24 10° SE 05:19:45 76° ENE 05:21:18 29° NNW
H-2A R/B 2.7 05:16:51 10° N 05:20:26 52° WNW 05:24:02 10° SSW
FALCON 9 DEB 4.2 05:19:05 18° SSW 05:20:44 34° SE 05:23:21 10° ENE
NOSS 3-2 (C) 4.3 05:16:37 10° SSW 05:21:52 49° ESE 05:27:53 10° NE
CENTAUR R/B 2.7 05:19:15 10° SSW 05:24:58 72° ESE 05:31:56 10° NE
Cosmos 968 Rocket 4.3 05:21:20 10° S 05:26:20 52° ESE 05:31:19 10° NNE
Cosmos 1151 Rocket 4.2 05:22:23 10° N 05:26:35 43° ENE 05:30:47 10° SSE
Gbstr 26 Del rocket 2.7 05:28:19 32° WNW 05:30:02 86° NNE 05:34:22 10° ESE
Cosmos 2208 Rocket 4.1 05:24:44 10° NNW 05:30:14 85° ENE 05:35:39 10° SSE
CZ-4B R/B 3.8 05:27:09 10° NNE 05:30:39 43° E 05:34:03 10° S
Meteor 2-3 Rocket 3.6 05:25:08 10° SSW 05:30:45 78° WNW 05:36:29 10° N
Landsat 5 3.7 05:27:45 10° S 05:32:09 55° W 05:36:36 10° NNW
Cosmos 1814 Rocket 3.9 05:28:34 14° NNW 05:32:58 65° WSW 05:38:01 10° S
COSMOS 2406 4.3 05:34:29 21° W 05:35:02 22° W 05:39:14 10° SSW
Cosmos 2082 Rocket 2.8 05:34:44 21° WNW 05:37:32 34° WSW 05:42:31 10° SSW
Meteor 1-26 Rocket 4.3 05:32:53 10° NNW 05:38:54 73° W 05:44:44 10° S
NOSS 8 (A) 4.0 05:35:36 10° SW 05:39:05 74° NW 05:42:00 10° NE
CZ-4B R/B 3.6 05:38:18 10° SE 05:41:07 25° ENE 05:43:55 10° NNE
COSMOS 2455 4.1 05:40:17 18° W 05:41:16 19° WSW 05:45:21 10° SSW
Cosmos 2297 3.7 05:35:36 10° SSW 05:41:21 85° WNW 05:47:08 10° NNE
Meteor PRIRODA 3.9 05:37:51 10° NNE 05:41:29 70° ESE 05:45:04 10° S
Kosmos-917 4.4 05:43:21 23° W 05:44:41 37° NW 05:49:10 10° NE
USA 238 DEB 3.7 05:43:32 10° SSW 05:50:01 85° SE 05:56:53 10° NE
USA 238 3.7 05:43:39 10° SSW 05:50:07 84° SE 05:57:00 10° NE
OE (NEXTSAT) 4.3 05:49:10 22° W 05:51:14 78° SSW 05:54:39 10° ESE
Cosmos 1782 3.0 05:49:40 10° NNW 05:53:31 49° W 05:57:19 10° S
NOAA 11 4.1 05:50:18 10° N 05:55:45 73° WNW 06:01:12 10° SSW
Cosmos 1862 3.7 05:52:27 10° S 05:56:22 67° E 06:00:18 10° NNE
CZ-2C R/B 2.9 05:52:40 10° NNE 05:57:28 88° WNW 06:02:23 10° SSW
SWAS 4.4 05:53:44 10° SSW 05:58:02 80° WNW 06:02:23 10° NNE
Cosmos 2278 Rocket 3.5 05:55:34 15° WNW 05:58:11 20° NW 06:02:22 10° N
USA 215 4.3 05:54:51 10° S 06:00:19 28° SW 06:05:12 12° WNW
CZ-2C R/B 3.5 05:55:50 10° SSW 06:00:40 30° W 06:05:29 10° NNW
Cosmos 1943 Rocket 2.2 05:55:51 10° SW 06:01:28 62° WNW 06:07:06 10° NNE
Okean 3 Rocket 3.8 06:00:09 10° S 06:04:40 80° E 06:09:13 10° N
Cosmos 1486 Rocket 4.4 06:00:13 10° S 06:05:29 70° ESE 06:10:47 10° NNE
Cosmos 1933 4.5 06:03:50 10° NW 06:07:02 23° W 06:10:13 10° SW
IRAS Rocket 4.4 06:02:20 10° S 06:07:42 51° WSW 06:13:04 10° NNW
Cosmos 2344 3.8 06:01:01 10° WSW 06:08:06 47° NW 06:15:50 10° NE
OPS 8737 4.5 06:05:10 10° SW 06:09:26 72° NW 06:12:40 10° NE
FengYun 1-2 T 4.4 06:05:31 10° NNE 06:11:03 82° ESE 06:16:32 10° SSW
ADEOS 3.8 06:06:20 10° N 06:11:19 46° WNW 06:16:16 10° SW
Meteor 1-31 Rocket 4.1 06:10:02 10° NNW 06:12:52 20° WNW 06:15:43 10° WSW
Iridium 2 4.2 06:12:26 10° SSW 06:15:58 37° W 06:19:33 10° N
SJ 16-02 4.4 06:13:39 10° SE 06:16:31 17° E 06:19:23 10° NE
SL-8 R/B 3.9 06:13:04 11° W 06:17:42 62° N 06:22:27 10° E
Cosmos 2151 4.2 06:15:57 10° WSW 06:19:10 20° WNW 06:22:24 10° NNW
Cosmos 2279 Rocket 4.0 06:14:41 10° NNW 06:20:49 63° W 06:26:53 10° S
BREEZE-M DEB (TANK) 4.1 06:09:43 10° SW 06:20:58 55° SSE 06:24:19 10° ENE
Meteor 2-8 Rocket 4.5 06:15:34 10° N 06:21:45 79° W 06:27:51 10° S
DNEPR-1 R/B 4.5 06:18:49 10° NNW 06:23:25 57° NE 06:28:51 10° SE
AQUARIUS 4.3 06:19:36 10° NNE 06:24:08 86° ESE 06:28:38 10° SSW
Cosmos 1812 3.3 06:22:10 10° NNW 06:25:42 35° W 06:29:13 10° SSW
Nadezhda 4 Rocket 4.2 06:25:55 10° S 06:32:01 78° E 06:38:14 10° N
H-2A R/B 2.5 06:28:31 10° SSW 06:32:27 39° W 06:36:29 10° NNW
Cosmos 1939 Rocket 3.0 06:28:59 10° N 06:32:52 49° WNW 06:36:39 10° SSW
SMAP 3.1 06:31:53 10° N 06:36:30 63° WNW 06:41:06 10° SSW
FALCON 9 R/B 4.3 06:22:21 10° W 06:37:45 37° SSW 06:42:58 10° SE
